Location: Clermont
(50.2608°N, 4.3172°E)
Time: 20:44:23
(UTC+00:00)

NOSS 3-2 (C) - Pass Details

Date: 13 August 2020
Orbit: 800 x 1413 km, 63.4° (Epoch: 21 September)

Event Time Altitude Azimuth Distance (km) Brightness Sun altitude
Rises 21:28:24 0° 226° (SW) 3,392 6.3 -18.6°
Reaches altitude 10° 21:30:44 10° 227° (SW) 2,510 5.6 -18.8°
Maximum altitude 21:36:33 80° 315° (NW) 969 3.5 -19.3°
Drops below altitude 10° 21:43:19 10° 43° (NE) 2,901 6.1 -19.9°
Sets 21:46:11 0° 45° (NE) 3,957 6.9 -20.2°
